Bierset, Belgium

9:06 AM CEST on July 26, 2017 (GMT +0200)
Liege

Weather History for EBLG - December, 2012

Change the Weather History Date:

Sunday, December 2, 2012

  Actual Average Record
Temperature  
Mean Temperature 34 °F -  
Max Temperature 36 °F 40 °F 132 °F (1999)
Min Temperature 31 °F 33 °F 17 °F (2010)
Degree Days  
Heating Degree Days 32    
Moisture  
Dew Point 32 °F    
Average Humidity 92    
Maximum Humidity 100    
Minimum Humidity 84    
Precipitation  
Precipitation 0.03 in - - ()
Sea Level Pressure  
Sea Level Pressure 29.89 in    
Wind  
Wind Speed 12 mph ()    
Max Wind Speed 17 mph    
Max Gust Speed -    
Visibility 5.1 miles    
Events Rain , Snow    
Averages and records for this station are not official NWS values.
T = Trace of Precipitation, MM = Missing Value Source: Averaged Metar Reports

Daily Weather History Graph

Daily Weather History Graph

Search for Another Location

Airport or City:

Trip Planner

Search our weather history database for the weather conditions in past years. The results will help you decide how hot, cold, wet, or windy it might be!

Date:

Astronomy

Dec. 02, 2012 Rise Set
Actual Time 8:19 AM CET 4:35 PM CET
Civil Twilight 7:41 AM CET 5:14 PM CET
Nautical Twilight 6:59 AM CET 5:55 PM CET
Astronomical Twilight 6:20 AM CET 6:35 PM CET
Moon 8:17 PM CET (12/2) 10:51 AM CET (12/2)
Length of Visible Light 9h 32m
Length of Day
8h 16m
Waning Gibbous, 87% of the Moon is Illuminated
Dec 2
Waning Gibbous
Dec 6
Last Quarter
Dec 13
New
Dec 20
First Quarter
Dec 28
Full

Hourly Weather History & Observations

Time (CET) Temp. Windchill Dew Point Humidity Pressure Visibility Wind Dir Wind Speed Gust Speed Precip Events Conditions
12:20 AM 35.6 °F 25.9 °F 33.8 °F 93% 29.80 in - SW 16.1 mph - N/A   Mostly Cloudy
12:50 AM 35.6 °F 25.9 °F 33.8 °F 93% 29.80 in - WSW 16.1 mph - N/A Rain , Snow Light Rain
1:00 AM 35 °F - 33 °F 89% 29.85 in 2 mi WSW 15.7 mph - - Snow Light Snow
1:20 AM 35.6 °F 25.5 °F 33.8 °F 93% 29.80 in 2.2 mi West 17.3 mph - N/A Rain , Snow Light Rain
1:50 AM 35.6 °F 26.6 °F 33.8 °F 93% 29.80 in 2.2 mi WSW 13.8 mph - N/A Rain , Snow Light Rain
2:20 AM 35.6 °F 26.2 °F 33.8 °F 93% 29.80 in 2.2 mi West 15.0 mph - N/A Rain , Snow Light Rain
2:50 AM 35.6 °F 25.9 °F 33.8 °F 93% 29.80 in 5.6 mi West 16.1 mph - N/A Rain , Snow Light Rain
3:20 AM 35.6 °F 25.9 °F 33.8 °F 93% 29.80 in 5.6 mi West 16.1 mph - N/A Rain , Snow Light Rain
3:50 AM 33.8 °F 23.5 °F 32.0 °F 93% 29.80 in 5.6 mi West 16.1 mph - N/A Rain , Snow Light Rain
4:00 AM 34 °F - 33 °F 92% 29.83 in 6 mi West 15.7 mph - - Snow Light Snow
4:20 AM 33.8 °F 23.2 °F 32.0 °F 93% 29.80 in 5.6 mi West 17.3 mph - N/A Rain , Snow Light Rain
4:50 AM 32.0 °F 22.5 °F 30.2 °F 93% 29.80 in 1.0 mi West 12.7 mph - N/A Snow Light Snow Showers
5:20 AM 32.0 °F 21.6 °F 30.2 °F 93% 29.80 in 1.9 mi West 15.0 mph - N/A Snow Light Snow
5:50 AM 32.0 °F 21.6 °F 30.2 °F 93% 29.80 in 0.6 mi West 15.0 mph - N/A Snow Snow Showers
6:20 AM 32.0 °F 22.5 °F 30.2 °F 93% 29.80 in 1.6 mi West 12.7 mph - N/A Snow Light Snow
6:50 AM 32.0 °F 23.0 °F 30.2 °F 93% 29.80 in 0.6 mi West 11.5 mph - N/A Snow Snow
7:00 AM 32 °F - 31 °F 92% 29.85 in 1 mi West 11.2 mph - - Snow Snow
7:20 AM 32.0 °F 22.5 °F 30.2 °F 93% 29.83 in 0.9 mi West 12.7 mph - N/A Snow Light Snow
7:50 AM 32.0 °F 22.5 °F 30.2 °F 93% 29.83 in 2.2 mi West 12.7 mph - N/A Snow Light Snow
8:20 AM 32.0 °F 23.0 °F 32.0 °F 100% 29.83 in 4.3 mi West 11.5 mph - N/A Snow Light Snow
8:50 AM 32.0 °F 23.0 °F 32.0 °F 100% 29.83 in 3.7 mi West 11.5 mph - N/A Snow Light Snow
9:20 AM 32.0 °F 23.0 °F 30.2 °F 93% 29.86 in 5.6 mi West 11.5 mph - N/A   Mostly Cloudy
9:50 AM 32.0 °F 23.6 °F 32.0 °F 100% 29.86 in 4.3 mi West 10.4 mph - N/A   Mostly Cloudy
10:00 AM 33 °F - 31 °F 91% 29.91 in 4 mi West 11.2 mph - - Snow Light Snow
10:20 AM 33.8 °F 25.3 °F 32.0 °F 93% 29.86 in 4.3 mi West 11.5 mph - N/A Snow Light Snow
10:50 AM 33.8 °F 24.8 °F 32.0 °F 93% 29.89 in 5.6 mi West 12.7 mph - N/A   Mostly Cloudy
11:20 AM 33.8 °F 25.3 °F 32.0 °F 93% 29.89 in 6.2 mi West 11.5 mph - N/A   Mostly Cloudy
11:50 AM 33.8 °F 24.3 °F 32.0 °F 93% 29.89 in 6.2 mi West 13.8 mph - N/A   Mostly Cloudy
12:20 PM 33.8 °F 24.3 °F 32.0 °F 93% 29.89 in 6.2 mi West 13.8 mph - N/A   Mostly Cloudy
12:50 PM 35.6 °F 27.5 °F 33.8 °F 93% 29.89 in 6.2 mi West 11.5 mph - N/A   Mostly Cloudy
1:00 PM 35 °F - 33 °F 91% 29.93 in 7 mi West 11.2 mph - -   Partly Cloudy
1:20 PM 35.6 °F 26.2 °F 33.8 °F 93% 29.89 in 6.2 mi West 15.0 mph - N/A   Mostly Cloudy
1:50 PM 35.6 °F 27.1 °F 33.8 °F 93% 29.89 in 6.2 mi West 12.7 mph - N/A   Mostly Cloudy
2:20 PM 35.6 °F 27.5 °F 33.8 °F 93% 29.89 in 6.2 mi West 11.5 mph - N/A Rain Light Rain
2:50 PM 35.6 °F 27.5 °F 33.8 °F 93% 29.89 in 6.2 mi West 11.5 mph - N/A   Mostly Cloudy
3:20 PM 35.6 °F 26.6 °F 33.8 °F 93% 29.92 in 6.2 mi West 13.8 mph - N/A   Mostly Cloudy
3:50 PM 35.6 °F 27.5 °F 33.8 °F 93% 29.92 in 6.2 mi West 11.5 mph - N/A Rain Light Rain Showers
4:00 PM 35 °F - 34 °F 93% 29.96 in 9 mi West 11.2 mph - - Rain Light Rain Showers
4:20 PM 35.6 °F 27.5 °F 33.8 °F 93% 29.92 in 6.2 mi West 11.5 mph - N/A Rain Light Rain Showers
4:50 PM 35.6 °F 27.5 °F 33.8 °F 93% 29.95 in 6.2 mi West 11.5 mph - N/A Rain Light Rain Showers
5:20 PM 35.6 °F 27.5 °F 33.8 °F 93% 29.95 in 6.2 mi West 11.5 mph - N/A Rain Light Rain Showers
5:50 PM 35.6 °F 28.0 °F 33.8 °F 93% 29.95 in 6.2 mi West 10.4 mph - N/A   Mostly Cloudy
6:20 PM 35.6 °F 28.6 °F 33.8 °F 93% 29.95 in 6.2 mi West 9.2 mph - N/A   Mostly Cloudy
6:50 PM 35.6 °F 28.6 °F 33.8 °F 93% 29.95 in 6.2 mi West 9.2 mph - N/A   Mostly Cloudy
7:00 PM 35 °F - 33 °F 89% 30.00 in 8 mi West 8.9 mph - -   Partly Cloudy
7:20 PM 35.6 °F 28.6 °F 32.0 °F 87% 29.95 in 6.2 mi West 9.2 mph - N/A   Mostly Cloudy
7:50 PM 35.6 °F 28.6 °F 32.0 °F 87% 29.98 in 6.2 mi West 9.2 mph - N/A   Mostly Cloudy
8:20 PM 35.6 °F 27.5 °F 32.0 °F 87% 29.98 in 6.2 mi West 11.5 mph - N/A   Mostly Cloudy
8:50 PM 33.8 °F 25.8 °F 32.0 °F 93% 29.98 in 6.2 mi West 10.4 mph - N/A   Mostly Cloudy
9:20 PM 33.8 °F 26.4 °F 30.2 °F 87% 29.98 in 6.2 mi West 9.2 mph - N/A   Mostly Cloudy
9:50 PM 33.8 °F 26.4 °F 30.2 °F 87% 29.98 in 6.2 mi WSW 9.2 mph - N/A   Mostly Cloudy
10:00 PM 34 °F - 31 °F 84% 30.03 in 14 mi WSW 8.9 mph - -   Mostly Cloudy
10:20 PM 33.8 °F 25.8 °F 30.2 °F 87% 30.01 in 6.2 mi WSW 10.4 mph - N/A   Mostly Cloudy
10:50 PM 33.8 °F 25.8 °F 32.0 °F 93% 30.01 in 6.2 mi WSW 10.4 mph - N/A   Mostly Cloudy
11:20 PM 33.8 °F 27.7 °F 32.0 °F 93% 30.01 in 6.2 mi WSW 6.9 mph - N/A   Mostly Cloudy
11:50 PM 33.8 °F 27.0 °F 30.2 °F 87% 30.01 in 6.2 mi WSW 8.1 mph - N/A   Mostly Cloudy